Wind_Speed
14 14 13 14 15 15 16 17 18 17 17 20 25 26 27 27 26 21 23 18 13 14 18 10 15 19 14 22 25 23 16 17 21 21 18 18 9 15 8 13 16 15 19 18 19
15 16 16 16 16 15 17 17 18 19 19 18 19 22 25 24 26 27 28 27 22 19 16 16 20 18 22 21 27 26 17 25 21 19 18 25 14 17 15 11 18 20 22 18 15
16 17 18 19 19 18 18 17 18 19 19 19 19 17 18 19 20 24 24 28 29 28 27 20 23 22 28 30 30 30 24 24 27 24 25 29 31 27 20 24 21 22 26 20 22
16 17 18 19 20 21 21 20 19 19 19 20 20 18 14 7 10 2 10 18 20 27 30 27 29 32 28 27 32 29 35 33 33 36 32 28 34 26 30 29 27 26 27 23 25
16 16 17 18 19 20 22 22 22 21 19 19 20 19 16 13 21 20 16 7 9 9 23 30 35 36 32 31 33 31 30 37 37 40 39 36 34 34 33 35 33 27 29 27 27
17 18 18 19 19 19 19 20 20 20 20 19 17 17 14 24 13 16 18 16 11 11 17 26 36 38 39 37 34 38 38 39 41 41 40 32 35 35 35 37 38 28 31 31 29
17 18 19 20 21 21 21 20 19 19 20 21 20 17 20 29 17 15 15 19 21 19 20 21 29 36 36 34 41 43 34 34 36 38 33 35 36 34 38 39 37 33 34 32 27
17 17 18 19 20 21 21 22 22 20 19 18 18 12 16 14 19 23 22 25 24 26 24 19 19 31 37 31 34 33 33 30 32 32 35 27 33 27 37 36 35 29 31 24 28
21 22 23 24 26 26 22 20 17 17 17 13 10 13 23 9 14 15 23 23 22 25 25 27 20 25 26 23 21 26 28 37 31 30 27 29 39 28 36 34 37 36 24 25 31
21 23 24 26 27 27 27 20 18 12 5 5 10 8 20 14 6 4 4 10 18 21 26 24 23 18 20 22 27 32 32 31 32 29 28 32 35 28 29 30 37 34 28 31 36
23 24 25 27 27 26 26 20 5 8 11 15 15 17 24 10 14 19 11 9 14 20 25 29 19 27 42 38 35 33 25 31 32 29 30 32 34 24 25 34 36 34 28 32 34
25 26 27 28 27 23 11 13 10 8 14 27 32 36 34 30 30 26 20 18 17 20 22 24 30 45 28 32 33 33 32 32 29 28 27 27 29 29 24 26 36 37 32 31 35
27 28 28 30 23 9 12 12 8 11 12 29 31 28 27 21 29 28 27 28 23 22 26 30 42 26 34 33 30 33 32 30 31 25 25 27 29 31 30 32 35 40 43 39 32
28 27 28 27 11 12 10 10 9 11 7 16 11 7 9 8 12 17 24 32 27 30 23 28 34 33 33 36 34 33 30 28 26 22 21 22 22 31 24 25 24 35 34 26 26
28 28 22 14 12 7 9 10 9 8 6 6 8 6 7 9 4 3 15 19 24 26 23 32 30 36 37 42 32 38 24 27 25 20 24 29 18 24 21 24 24 23 27 28 28
28 22 14 11 8 9 11 8 6 6 10 1 3 7 14 5 3 3 5 17 16 22 29 31 33 29 39 35 30 29 28 27 21 20 20 27 21 26 23 26 20 23 27 24 25
29 12 11 8 11 13 7 5 5 7 4 6 11 4 17 12 12 7 11 10 13 15 23 31 30 29 32 30 36 29 26 18 19 20 26 19 21 24 23 22 22 23 28 18 15
24 10 11 9 11 10 4 5 6 13 12 11 12 16 16 16 10 8 13 13 17 16 21 24 27 33 29 30 36 34 31 17 32 14 20 24 26 22 22 24 27 27 12 12 13
13 8 3 15 6 3 9 5 10 14 17 15 16 18 19 16 9 11 14 7 8 10 8 18 30 29 33 25 27 39 27 35 24 23 20 17 17 18 18 17 13 15 22 19 17
10 6 6 8 4 2 3 6 9 9 13 15 16 11 18 12 4 16 9 7 8 7 14 18 13 33 28 31 30 33 28 23 21 28 24 16 14 8 6 10 15 15 16 22 19
8 4 4 4 5 3 3 6 13 15 13 10 18 16 17 16 17 16 13 5 3 13 15 18 7 19 34 33 30 25 24 31 21 20 17 16 10 9 6 8 12 15 19 26 24
7 4 4 4 5 4 7 9 12 12 16 9 9 14 12 12 14 16 4 5 7 11 13 13 5 16 19 23 31 31 29 30 17 26 18 9 7 6 3 13 10 13 21 24 24
11 6 3 5 4 8 17 17 15 12 13 10 11 12 15 15 7 6 5 2 4 7 5 7 9 12 6 18 29 29 33 26 27 15 22 13 10 6 3 5 10 8 21 24 25
7 5 7 5 4 6 14 16 13 17 10 9 17 14 12 13 12 8 8 1 3 14 13 13 14 17 7 11 22 32 33 28 27 16 17 21 12 9 11 12 9 10 15 23 27
6 4 4 4 10 11 14 16 17 12 13 20 10 8 15 15 16 11 4 16 5 9 5 5 18 25 10 19 27 30 26 29 27 24 18 20 15 9 10 11 10 14 19 23 26
6 7 9 17 12 10 12 13 13 15 17 16 16 19 18 17 15 16 18 11 7 4 5 6 12 19 14 17 30 11 27 28 25 29 19 12 16 12 5 11 8 10 19 22 25
5 7 8 12 6 7 9 13 18 17 12 14 18 18 17 16 22 26 24 24 18 14 13 7 8 9 7 15 23 13 18 20 20 27 19 15 7 8 8 2 4 9 19 23 23
Wind_Direction
337 335 334 332 329 327 324 323 321 313 297 287 282 277 278 279 278 274 261 243 230 241 243 247 208 209 215 232 226 235 252 250 251 257 265 264 214 254 248 285 289 281 277 273 282
331 330 329 327 323 323 323 321 319 321 319 315 297 285 281 281 281 275 261 245 243 238 229 213 222 209 220 229 232 234 238 244 252 263 278 291 258 250 257 235 261 273 279 275 262
326 327 326 326 325 323 319 316 314 313 315 319 320 315 298 294 301 274 255 246 242 239 237 229 238 226 231 229 229 234 239 250 254 257 271 272 269 275 287 279 276 289 285 299 289
328 325 323 323 321 319 316 316 315 313 314 315 316 322 325 291 255 321 263 239 237 225 229 231 235 242 230 237 229 241 242 247 258 268 278 274 267 272 270 277 284 286 283 286 287
336 331 326 322 320 318 317 315 312 311 310 310 312 312 317 247 240 288 293 261 230 243 228 221 225 229 236 234 241 239 244 253 258 262 270 271 275 278 272 270 282 285 283 280 277
343 338 334 332 329 324 318 314 310 309 305 301 299 298 285 267 256 249 254 257 255 242 239 230 229 230 240 240 244 248 253 255 259 262 267 266 267 262 262 270 268 275 274 274 277
339 335 331 331 329 326 324 318 310 302 295 295 293 288 270 254 259 263 262 253 246 248 245 239 237 240 241 249 251 258 258 259 256 260 260 259 262 261 266 267 270 271 272 268 272
340 336 333 331 327 323 321 318 312 303 293 283 280 255 259 262 269 265 258 256 251 242 240 241 248 242 242 255 249 249 254 258 251 251 251 247 260 266 269 267 267 263 272 276 279
344 339 334 331 330 331 326 324 315 295 288 280 261 228 267 271 244 271 243 246 245 242 239 242 245 244 234 242 253 237 244 240 253 249 248 240 255 256 267 263 264 265 272 274 277
349 344 339 335 332 331 326 327 320 299 313 262 240 241 251 252 238 270 270 248 246 237 227 222 226 233 233 221 230 230 236 245 255 254 247 248 260 255 263 266 268 271 262 273 278
346 342 339 337 335 332 332 341 292 252 228 257 288 233 284 239 273 271 263 253 245 230 224 204 210 218 221 220 235 241 242 247 248 246 241 258 263 256 258 264 262 260 255 267 280
340 335 332 330 333 334 3 329 328 308 295 277 269 262 257 264 271 258 254 248 233 231 223 215 215 222 223 231 229 244 250 253 260 261 258 253 257 269 255 260 268 271 268 265 276
339 333 329 325 334 359 321 317 293 310 278 282 270 260 252 242 247 246 239 234 241 228 227 220 226 229 228 232 234 234 234 243 251 258 259 262 267 261 260 262 264 269 272 272 273
339 334 330 328 338 315 325 320 319 314 283 279 196 198 177 221 255 233 235 227 235 237 238 233 237 235 228 233 228 235 229 240 251 257 257 251 265 257 263 264 259 263 261 257 256
342 336 337 339 315 327 319 314 304 279 283 113 126 152 186 227 324 51 219 228 237 239 229 240 229 230 239 226 226 242 234 236 238 250 259 254 258 270 275 268 265 253 259 263 255
343 339 354 357 329 305 302 291 285 239 246 121 46 338 224 229 231 224 261 226 253 241 251 244 242 233 234 242 231 240 234 243 238 238 245 246 250 265 263 265 260 256 258 258 244
344 341 9 349 324 313 312 282 239 253 348 26 355 15 321 273 230 247 268 273 239 215 237 242 245 247 235 225 239 224 224 225 231 230 245 248 245 261 269 271 262 257 255 256 238
345 1 329 327 321 312 280 243 254 356 354 312 314 313 279 281 243 258 258 264 274 274 290 226 230 231 228 227 217 223 213 217 219 218 239 232 243 256 266 250 255 242 214 234 162
6 348 324 325 349 308 297 250 5 358 345 330 311 283 284 273 286 270 265 283 329 319 294 254 231 230 226 226 229 215 215 220 247 231 243 255 240 229 248 248 242 238 234 224 173
354 331 323 345 321 276 259 308 349 333 324 316 297 289 300 301 237 285 283 139 276 307 279 273 266 226 228 222 235 232 210 212 227 240 248 232 253 257 216 224 217 225 210 186 172
347 291 318 341 344 300 304 320 325 338 329 319 311 309 307 293 293 301 282 149 221 301 280 288 272 259 222 203 216 214 211 210 220 229 234 252 258 229 260 254 265 198 187 175 171
299 310 346 326 295 293 290 341 307 304 306 317 304 301 307 322 311 294 338 321 210 300 291 256 259 260 229 216 214 213 217 201 219 216 238 292 200 97 229 225 198 166 164 160 170
310 298 270 320 315 319 324 314 281 308 326 314 302 309 307 307 290 285 290 13 268 304 320 349 233 259 216 231 205 222 208 209 219 225 212 231 200 132 237 201 202 135 139 154 166
318 327 331 323 332 294 320 309 317 308 330 322 305 324 311 322 314 286 309 100 245 267 271 298 265 261 239 260 197 214 206 207 199 217 191 225 116 178 172 152 113 127 151 164 166
339 281 327 308 316 317 291 283 308 330 330 317 308 292 323 318 313 318 297 321 294 323 254 274 250 242 241 303 307 200 215 205 199 209 222 198 226 174 126 88 105 138 159 158 163
331 336 324 303 299 304 308 309 321 333 327 304 307 323 324 313 318 314 322 316 299 260 243 255 276 259 247 263 282 248 210 200 209 204 227 165 197 217 53 126 139 155 169 171 170
310 312 291 288 302 299 295 320 314 327 306 312 318 312 307 311 313 300 288 283 272 273 291 283 301 251 224 237 269 231 202 208 196 199 214 220 191 213 222 248 193 143 184 180 179
Height
1522 1520 1519 1517 1514 1512 1511 1508 1506 1505 1505 1503 1500 1499 1499 1500 1500 1503 1501 1505 1506 1505 1507 1509 1510 1511 1511 1511 1509 1507 1501 1493 1483 1479 1471 1468 1469 1471 1478 1483 1482 1482 1480 1480 1482
1521 1519 1517 1515 1514 1512 1510 1507 1504 1502 1499 1498 1498 1496 1497 1496 1495 1492 1495 1496 1499 1501 1503 1506 1508 1506 1506 1506 1505 1503 1493 1485 1476 1472 1470 1467 1466 1470 1473 1475 1478 1479 1477 1475 1479
1520 1517 1515 1513 1511 1511 1509 1505 1503 1500 1498 1497 1493 1493 1492 1492 1491 1485 1484 1487 1491 1495 1498 1503 1504 1501 1500 1496 1494 1490 1484 1478 1472 1470 1470 1470 1466 1468 1470 1471 1470 1472 1474 1473 1476
1519 1516 1514 1511 1508 1506 1503 1501 1500 1498 1496 1494 1491 1490 1490 1492 1489 1477 1481 1481 1483 1486 1490 1493 1498 1495 1489 1485 1485 1483 1478 1479 1475 1472 1470 1465 1466 1464 1468 1468 1470 1471 1472 1472 1473
1518 1515 1512 1510 1507 1503 1500 1498 1496 1495 1494 1491 1489 1488 1489 1490 1480 1481 1482 1482 1482 1484 1484 1486 1490 1489 1477 1478 1477 1469 1471 1472 1472 1471 1468 1467 1463 1461 1462 1467 1467 1468 1469 1468 1468
1517 1514 1511 1508 1505 1502 1500 1497 1494 1492 1490 1489 1488 1486 1488 1481 1477 1478 1478 1478 1478 1480 1480 1481 1479 1480 1472 1471 1466 1466 1464 1463 1465 1464 1464 1463 1458 1459 1461 1464 1461 1461 1461 1461 1460
1517 1514 1511 1507 1504 1500 1497 1494 1491 1488 1486 1483 1482 1481 1480 1469 1472 1472 1473 1473 1475 1476 1476 1477 1477 1474 1471 1462 1464 1462 1458 1456 1453 1457 1454 1458 1449 1450 1456 1456 1453 1453 1454 1453 1455
1517 1513 1510 1506 1503 1499 1495 1490 1486 1484 1481 1480 1478 1480 1471 1467 1467 1467 1467 1467 1469 1471 1472 1474 1473 1469 1466 1464 1459 1458 1454 1452 1446 1450 1451 1457 1441 1446 1449 1447 1444 1444 1445 1445 1450
1515 1511 1507 1503 1499 1495 1492 1488 1484 1480 1477 1476 1477 1478 1467 1460 1460 1459 1460 1461 1464 1465 1468 1471 1471 1464 1465 1460 1460 1448 1447 1440 1445 1442 1442 1443 1431 1439 1443 1440 1440 1437 1438 1443 1442
1514 1510 1505 1501 1497 1492 1487 1483 1479 1476 1476 1477 1476 1479 1461 1457 1456 1457 1457 1459 1459 1461 1462 1464 1465 1461 1458 1450 1440 1437 1438 1442 1440 1435 1432 1431 1423 1424 1432 1435 1435 1430 1432 1437 1434
1513 1509 1504 1499 1494 1490 1484 1482 1480 1475 1474 1468 1463 1461 1453 1454 1455 1455 1456 1457 1456 1456 1448 1452 1458 1443 1420 1425 1423 1427 1431 1427 1423 1420 1428 1424 1418 1415 1426 1429 1425 1424 1424 1427 1428
1511 1507 1502 1497 1493 1488 1486 1486 1483 1484 1472 1463 1456 1451 1451 1452 1450 1451 1454 1453 1450 1445 1447 1444 1433 1400 1428 1426 1428 1431 1430 1422 1419 1415 1416 1414 1414 1412 1413 1418 1419 1417 1414 1416 1421
1509 1504 1499 1493 1489 1486 1487 1485 1483 1481 1473 1454 1442 1439 1439 1443 1440 1441 1445 1445 1442 1435 1431 1428 1397 1429 1421 1419 1424 1418 1421 1422 1422 1417 1410 1412 1411 1406 1406 1407 1411 1414 1412 1412 1411
1506 1501 1495 1489 1489 1487 1484 1484 1482 1481 1466 1427 1431 1432 1436 1436 1433 1432 1432 1437 1433 1428 1424 1419 1413 1410 1414 1412 1411 1411 1409 1417 1420 1423 1426 1412 1417 1396 1399 1399 1400 1400 1399 1402 1405
1504 1498 1493 1487 1488 1487 1487 1484 1482 1481 1453 1422 1428 1432 1429 1431 1426 1425 1426 1430 1425 1422 1425 1403 1408 1404 1404 1390 1405 1390 1408 1409 1414 1422 1421 1412 1419 1387 1396 1394 1391 1391 1393 1396 1397
1501 1495 1492 1492 1490 1487 1484 1482 1483 1475 1442 1421 1426 1432 1425 1426 1423 1422 1425 1425 1423 1421 1412 1401 1401 1398 1390 1394 1395 1399 1406 1407 1407 1412 1419 1404 1414 1387 1391 1384 1382 1384 1385 1386 1387
1499 1494 1492 1491 1490 1487 1484 1483 1477 1454 1435 1435 1435 1436 1434 1421 1422 1419 1420 1416 1417 1417 1413 1403 1397 1390 1390 1394 1390 1392 1402 1417 1422 1410 1389 1395 1402 1380 1376 1375 1376 1379 1379 1378 1378
1496 1494 1493 1491 1487 1486 1484 1479 1465 1439 1442 1442 1434 1430 1428 1418 1420 1420 1419 1414 1408 1413 1415 1394 1400 1383 1373 1375 1377 1380 1386 1391 1407 1400 1394 1382 1393 1375 1363 1365 1369 1373 1370 1374 1381
1495 1494 1494 1491 1487 1486 1485 1469 1451 1450 1448 1444 1440 1433 1422 1414 1417 1411 1409 1411 1418 1427 1426 1388 1381 1369 1371 1370 1370 1371 1374 1363 1383 1369 1376 1363 1352 1354 1359 1359 1363 1364 1368 1373 1381
1495 1494 1492 1488 1484 1485 1483 1469 1460 1457 1455 1450 1446 1431 1424 1417 1432 1420 1407 1422 1424 1427 1436 1398 1389 1364 1359 1371 1365 1360 1359 1387 1377 1394 1385 1364 1363 1358 1357 1353 1354 1359 1361 1369 1380
1494 1490 1490 1488 1486 1483 1477 1465 1458 1458 1456 1451 1445 1439 1429 1421 1413 1410 1407 1420 1427 1421 1417 1405 1400 1369 1358 1350 1357 1355 1355 1363 1368 1364 1376 1381 1365 1338 1347 1350 1347 1349 1356 1366 1378
1494 1488 1487 1487 1486 1480 1469 1463 1461 1455 1450 1447 1444 1440 1434 1429 1422 1412 1413 1416 1424 1420 1412 1397 1401 1379 1353 1339 1347 1348 1349 1356 1361 1371 1360 1361 1361 1344 1347 1348 1343 1346 1353 1363 1377
1493 1487 1486 1485 1482 1478 1468 1462 1453 1448 1446 1444 1442 1438 1432 1430 1428 1419 1415 1420 1424 1426 1420 1408 1390 1376 1365 1357 1341 1340 1341 1343 1355 1350 1362 1366 1354 1340 1346 1347 1344 1346 1353 1366 1376
1495 1492 1486 1484 1485 1484 1473 1460 1452 1446 1446 1444 1438 1436 1434 1426 1417 1419 1409 1423 1424 1424 1424 1422 1399 1382 1373 1355 1339 1343 1335 1334 1348 1358 1352 1355 1353 1347 1346 1347 1349 1356 1362 1368 1374
1498 1492 1491 1485 1483 1482 1478 1466 1457 1450 1449 1445 1436 1435 1431 1426 1418 1415 1419 1417 1417 1420 1421 1419 1390 1375 1379 1379 1354 1331 1332 1334 1340 1347 1348 1346 1349 1343 1342 1346 1351 1360 1365 1370 1375
1501 1497 1492 1488 1482 1478 1471 1460 1458 1456 1457 1448 1443 1438 1434 1430 1426 1423 1417 1415 1413 1418 1416 1414 1388 1375 1376 1389 1368 1334 1329 1330 1335 1344 1336 1337 1349 1338 1344 1349 1355 1359 1365 1370 1375
1501 1499 1496 1486 1478 1479 1469 1465 1461 1460 1453 1448 1446 1441 1434 1432 1429 1425 1420 1414 1408 1407 1406 1405 1393 1373 1392 1385 1367 1348 1331 1327 1332 1336 1341 1353 1352 1346 1351 1353 1357 1358 1363 1369 1374